| time (UTC) | temp F | wind direction | speed MPH | gust MPH | rain 1hr in | rain 24hr in | rain mn in | humidity % | barometer mb |
| 20260509120905 | 65 | 46 | 14.0 | 28.0 | 0.00 | 0.20 | 0.13 | 64 | 1005.7 |
| 20260509120405 | 66 | 40 | 7.0 | 22.0 | 0.00 | 0.20 | 0.13 | 69 | 1005.6 |
| 20260509115905 | 65 | 54 | 8.0 | 23.0 | 0.00 | 0.20 | 0.13 | 70 | 1005.5 |
| 20260509115406 | 65 | 50 | 10.0 | 20.0 | 0.00 | 0.20 | 0.13 | 70 | 1005.5 |
| 20260509114405 | 65 | 59 | 9.0 | 20.0 | 0.00 | 0.20 | 0.13 | 68 | 1005.4 |
| 20260509113905 | 65 | 52 | 9.0 | 13.0 | 0.00 | 0.20 | 0.13 | 71 | 1005.2 |
| 20260509112905 | 65 | 26 | 7.0 | 12.0 | 0.00 | 0.20 | 0.13 | 70 | 1005.2 |
| 20260509112405 | 64 | 49 | 4.0 | 10.0 | 0.00 | 0.20 | 0.13 | 74 | 1005.1 |
| 20260509111406 | 63 | 38 | 6.0 | 12.0 | 0.00 | 0.20 | 0.13 | 74 | 1005.1 |
| 20260509110905 | 63 | 46 | 3.0 | 10.0 | 0.00 | 0.20 | 0.13 | 76 | 1005.0 |
| 20260509110405 | 63 | 31 | 2.0 | 9.0 | 0.00 | 0.20 | 0.13 | 77 | 1005.0 |
| 20260509105905 | 63 | 57 | 5.0 | 9.0 | 0.00 | 0.20 | 0.13 | 76 | 1005.0 |
| 20260509105405 | 63 | 24 | 9.0 | 15.0 | 0.00 | 0.20 | 0.13 | 75 | 1004.9 |
| 20260509104905 | 63 | 34 | 2.0 | 9.0 | 0.00 | 0.20 | 0.13 | 76 | 1004.9 |
| 20260509104405 | 63 | 8 | 5.0 | 12.0 | 0.00 | 0.20 | 0.13 | 75 | 1004.9 |
| 20260509103905 | 63 | 13 | 6.0 | 12.0 | 0.00 | 0.20 | 0.13 | 76 | 1004.9 |
| 20260509103405 | 63 | 20 | 7.0 | 13.0 | 0.00 | 0.20 | 0.13 | 76 | 1005.0 |
| 20260509102906 | 63 | 39 | 6.0 | 13.0 | 0.00 | 0.20 | 0.13 | 78 | 1004.9 |
| 20260509102405 | 62 | 30 | 7.0 | 16.0 | 0.00 | 0.20 | 0.13 | 79 | 1005.0 |
| 20260509101405 | 62 | 4 | 3.0 | 8.0 | 0.00 | 0.20 | 0.13 | 80 | 1004.9 |
| 20260509100904 | 62 | 346 | 6.0 | 9.0 | 0.00 | 0.20 | 0.13 | 79 | 1004.9 |
| 20260509095906 | 62 | 14 | 5.0 | 10.0 | 0.00 | 0.20 | 0.13 | 81 | 1004.8 |
| 20260509095405 | 61 | 21 | 2.0 | 12.0 | 0.00 | 0.20 | 0.13 | 83 | 1004.7 |
| 20260509094906 | 61 | 15 | 5.0 | 10.0 | 0.00 | 0.20 | 0.13 | 82 | 1004.7 |
| 20260509094405 | 60 | 37 | 3.0 | 9.0 | 0.00 | 0.20 | 0.13 | 83 | 1004.8 |
| 20260509093905 | 60 | 326 | 5.0 | 12.0 | 0.00 | 0.20 | 0.13 | 83 | 1004.9 |
| 20260509093405 | 60 | 29 | 6.0 | 13.0 | 0.00 | 0.20 | 0.13 | 83 | 1005.0 |
| 20260509092905 | 60 | 17 | 2.0 | 8.0 | 0.00 | 0.20 | 0.13 | 85 | 1005.0 |
| 20260509091905 | 59 | 9 | 5.0 | 9.0 | 0.00 | 0.20 | 0.13 | 85 | 1005.2 |
| 20260509091405 | 59 | 12 | 3.0 | 10.0 | 0.00 | 0.20 | 0.13 | 85 | 1005.2 |
| 20260509090905 | 59 | 20 | 4.0 | 10.0 | 0.00 | 0.20 | 0.13 | 86 | 1005.2 |
| 20260509090405 | 58 | 5 | 5.0 | 7.0 | 0.00 | 0.20 | 0.13 | 86 | 1005.1 |
| 20260509085905 | 58 | 6 | 2.0 | 8.0 | 0.00 | 0.20 | 0.13 | 88 | 1005.1 |
| 20260509085405 | 58 | 19 | 6.0 | 12.0 | 0.00 | 0.20 | 0.13 | 88 | 1005.1 |
| 20260509084905 | 58 | 18 | 5.0 | 9.0 | 0.01 | 0.20 | 0.13 | 89 | 1005.0 |
| 20260509084405 | 58 | 11 | 4.0 | 10.0 | 0.01 | 0.20 | 0.13 | 90 | 1005.0 |
| 20260509083905 | 58 | 12 | 3.0 | 7.0 | 0.01 | 0.20 | 0.13 | 91 | 1005.0 |
| 20260509083405 | 57 | 350 | 5.0 | 12.0 | 0.01 | 0.20 | 0.13 | 92 | 1005.0 |
| 20260509082904 | 57 | 353 | 4.0 | 12.0 | 0.01 | 0.20 | 0.13 | 92 | 1005.1 |
| 20260509082404 | 57 | 301 | 2.0 | 9.0 | 0.01 | 0.20 | 0.13 | 93 | 1005.0 |
| 20260509081905 | 56 | 328 | 2.0 | 8.0 | 0.02 | 0.20 | 0.13 | 93 | 1005.1 |
| 20260509081405 | 56 | 340 | 3.0 | 6.0 | 0.02 | 0.20 | 0.13 | 93 | 1005.1 |
| 20260509080905 | 56 | 307 | 0.0 | 7.0 | 0.02 | 0.20 | 0.13 | 93 | 1005.1 |
| 20260509080404 | 56 | 274 | 2.0 | 9.0 | 0.02 | 0.20 | 0.13 | 93 | 1005.0 |
| 20260509075905 | 56 | 289 | 3.0 | 7.0 | 0.02 | 0.20 | 0.13 | 93 | 1005.2 |
| 20260509075405 | 56 | 325 | 1.0 | 6.0 | 0.04 | 0.20 | 0.13 | 93 | 1005.3 |
| 20260509074405 | 56 | 329 | 3.0 | 6.0 | 0.05 | 0.20 | 0.13 | 92 | 1005.4 |
| 20260509073905 | 56 | 2 | 2.0 | 7.0 | 0.06 | 0.20 | 0.13 | 92 | 1005.3 |
| 20260509073405 | 56 | 312 | 3.0 | 7.0 | 0.06 | 0.20 | 0.13 | 92 | 1005.4 |
| 20260509072405 | 55 | 351 | 3.0 | 9.0 | 0.07 | 0.20 | 0.13 | 92 | 1005.4 |
| 20260509071906 | 55 | 17 | 4.0 | 9.0 | 0.06 | 0.19 | 0.12 | 92 | 1005.4 |
| 20260509071405 | 56 | 21 | 3.0 | 7.0 | 0.07 | 0.19 | 0.12 | 91 | 1005.5 |
| 20260509070904 | 56 | 24 | 1.0 | 7.0 | 0.07 | 0.19 | 0.12 | 91 | 1005.4 |
| 20260509070406 | 56 | 7 | 2.0 | 6.0 | 0.06 | 0.18 | 0.11 | 91 | 1005.4 |
| 20260509065905 | 56 | 11 | 3.0 | 10.0 | 0.06 | 0.18 | 0.11 | 91 | 1005.4 |
| 20260509065405 | 56 | 31 | 4.0 | 10.0 | 0.05 | 0.17 | 0.09 | 90 | 1005.4 |
| 20260509064905 | 56 | 359 | 2.0 | 8.0 | 0.03 | 0.15 | 0.08 | 90 | 1005.4 |
| 20260509064405 | 56 | 18 | 3.0 | 10.0 | 0.03 | 0.15 | 0.08 | 90 | 1005.4 |
| 20260509062905 | 56 | 15 | 5.0 | 9.0 | 0.02 | 0.13 | 0.06 | 90 | 1005.3 |
| 20260509062405 | 56 | 29 | 5.0 | 10.0 | 0.01 | 0.13 | 0.06 | 90 | 1005.2 |
| 20260509060905 | 56 | 43 | 2.0 | 5.0 | 0.00 | 0.12 | 0.05 | 91 | 1004.8 |
| 20260509060405 | 56 | 345 | 1.0 | 5.0 | 0.00 | 0.12 | 0.05 | 91 | 1004.8 |
| 20260509055905 | 56 | 219 | 1.0 | 5.0 | 0.00 | 0.12 | 0.05 | 91 | 1004.7 |
| 20260509055405 | 56 | 353 | 1.0 | 3.0 | 0.00 | 0.12 | 0.05 | 91 | 1004.7 |
| 20260509054906 | 56 | 304 | 0.0 | 2.0 | 0.00 | 0.12 | 0.05 | 91 | 1004.7 |
| 20260509053905 | 56 | 16 | 1.0 | 7.0 | 0.00 | 0.12 | 0.05 | 91 | 1004.8 |
| 20260509053405 | 56 | 343 | 1.0 | 3.0 | 0.00 | 0.12 | 0.05 | 92 | 1004.7 |
| 20260509052905 | 55 | 343 | 2.0 | 5.0 | 0.00 | 0.12 | 0.05 | 92 | 1004.8 |
| 20260509051905 | 55 | 347 | 1.0 | 3.0 | 0.00 | 0.12 | 0.05 | 92 | 1004.9 |
| 20260509051404 | 55 | 355 | 0.0 | 2.0 | 0.00 | 0.12 | 0.05 | 91 | 1005.0 |
| 20260509050904 | 56 | 355 | 0.0 | 3.0 | 0.00 | 0.12 | 0.05 | 91 | 1004.9 |
| 20260509045905 | 56 | 96 | 0.0 | 3.0 | 0.00 | 0.12 | 0.05 | 91 | 1004.9 |
| 20260509045405 | 56 | 347 | 2.0 | 6.0 | 0.00 | 0.12 | 0.05 | 91 | 1005.0 |
| 20260509044904 | 56 | 294 | 2.0 | 10.0 | 0.00 | 0.12 | 0.05 | 91 | 1004.9 |
| 20260509044405 | 56 | 302 | 3.0 | 5.0 | 0.04 | 0.12 | 0.05 | 91 | 1005.0 |
| 20260509043905 | 56 | 306 | 2.0 | 8.0 | 0.05 | 0.12 | 0.05 | 90 | 1005.1 |
| 20260509043405 | 56 | 295 | 3.0 | 8.0 | 0.05 | 0.12 | 0.05 | 90 | 1005.0 |
| 20260509042905 | 56 | 266 | 3.0 | 8.0 | 0.05 | 0.12 | 0.05 | 90 | 1005.1 |
| 20260509041905 | 56 | 260 | 2.0 | 8.0 | 0.05 | 0.12 | 0.05 | 90 | 1005.2 |
| 20260509041405 | 56 | 284 | 2.0 | 5.0 | 0.05 | 0.12 | 0.05 | 89 | 1005.3 |
| 20260509040904 | 56 | 285 | 2.0 | 7.0 | 0.05 | 0.12 | 0.05 | 89 | 1005.4 |
| 20260509040405 | 56 | 296 | 1.0 | 5.0 | 0.05 | 0.12 | 0.05 | 89 | 1005.4 |
| 20260509035905 | 56 | 310 | 0.0 | 3.0 | 0.05 | 0.12 | 0.05 | 89 | 1005.4 |
| 20260509035404 | 56 | 307 | 1.0 | 5.0 | 0.05 | 0.12 | 0.05 | 88 | 1005.5 |
| 20260509034905 | 56 | 311 | 2.0 | 7.0 | 0.05 | 0.12 | 0.05 | 88 | 1005.7 |
| 20260509034404 | 56 | 21 | 3.0 | 6.0 | 0.01 | 0.08 | 0.01 | 87 | 1005.9 |
| 20260509033905 | 56 | 324 | 4.0 | 8.0 | 0.00 | 0.07 | 0.00 | 87 | 1005.8 |
| 20260509033405 | 56 | 10 | 0.0 | 5.0 | 0.00 | 0.07 | 0.00 | 87 | 1005.9 |
| 20260509032905 | 56 | 20 | 3.0 | 8.0 | 0.00 | 0.07 | 0.00 | 87 | 1005.8 |
| 20260509032405 | 56 | 322 | 5.0 | 8.0 | 0.00 | 0.07 | 0.00 | 88 | 1005.9 |
| 20260509031905 | 56 | 11 | 0.0 | 1.0 | 0.00 | 0.07 | 0.00 | 87 | 1006.0 |
| 20260509031406 | 56 | 11 | 2.0 | 5.0 | 0.00 | 0.07 | 0.00 | 87 | 1006.1 |
| 20260509030905 | 56 | 11 | 0.0 | 5.0 | 0.00 | 0.07 | 0.00 | 87 | 1006.2 |
| 20260509030405 | 56 | 11 | 1.0 | 5.0 | 0.00 | 0.07 | 0.00 | 87 | 1006.3 |
| 20260509025905 | 56 | 11 | 2.0 | 5.0 | 0.00 | 0.07 | 0.00 | 87 | 1006.3 |
| 20260509025404 | 56 | 11 | 3.0 | 8.0 | 0.00 | 0.07 | 0.00 | 87 | 1006.3 |
| 20260509024404 | 55 | 352 | 3.0 | 8.0 | 0.00 | 0.07 | 0.00 | 87 | 1006.4 |
| 20260509023905 | 55 | 5 | 2.0 | 6.0 | 0.00 | 0.07 | 0.00 | 87 | 1006.3 |
| 20260509023404 | 55 | 355 | 0.0 | 3.0 | 0.00 | 0.07 | 0.00 | 87 | 1006.4 |
| 20260509022905 | 55 | 26 | 2.0 | 8.0 | 0.00 | 0.07 | 0.00 | 87 | 1006.3 |
| 20260509022405 | 56 | 23 | 1.0 | 9.0 | 0.00 | 0.07 | 0.00 | 87 | 1006.3 |
| 20260509021905 | 56 | 355 | 5.0 | 9.0 | 0.00 | 0.07 | 0.00 | 87 | 1006.5 |
| 20260509021405 | 56 | 21 | 3.0 | 12.0 | 0.00 | 0.07 | 0.00 | 87 | 1006.5 |
| 20260509020906 | 56 | 18 | 3.0 | 8.0 | 0.00 | 0.07 | 0.00 | 87 | 1006.7 |
| 20260509020405 | 56 | 14 | 4.0 | 9.0 | 0.00 | 0.07 | 0.00 | 87 | 1006.7 |
| 20260509015905 | 56 | 0 | 3.0 | 8.0 | 0.00 | 0.07 | 0.00 | 87 | 1006.8 |
| 20260509015405 | 56 | 25 | 4.0 | 6.0 | 0.00 | 0.07 | 0.00 | 87 | 1006.9 |
| 20260509014904 | 56 | 24 | 2.0 | 7.0 | 0.00 | 0.07 | 0.00 | 86 | 1006.9 |
| 20260509014404 | 56 | 26 | 5.0 | 8.0 | 0.00 | 0.07 | 0.00 | 86 | 1007.0 |
| 20260509013905 | 56 | 352 | 2.0 | 7.0 | 0.00 | 0.07 | 0.00 | 86 | 1007.0 |
| 20260509013405 | 56 | 34 | 0.0 | 6.0 | 0.00 | 0.07 | 0.00 | 86 | 1007.1 |
| 20260509012905 | 56 | 10 | 2.0 | 7.0 | 0.00 | 0.07 | 0.00 | 86 | 1007.2 |
| 20260509011905 | 56 | 4 | 3.0 | 8.0 | 0.00 | 0.07 | 0.00 | 86 | 1007.2 |
| 20260509011404 | 56 | 34 | 4.0 | 9.0 | 0.00 | 0.07 | 0.00 | 86 | 1007.3 |
| 20260509005905 | 56 | 22 | 5.0 | 10.0 | 0.00 | 0.07 | 0.00 | 86 | 1007.4 |
| 20260509005405 | 56 | 16 | 4.0 | 9.0 | 0.00 | 0.07 | 0.00 | 86 | 1007.5 |
| 20260509004905 | 57 | 22 | 5.0 | 9.0 | 0.00 | 0.07 | 0.00 | 86 | 1007.6 |
| 20260509004404 | 57 | 16 | 2.0 | 9.0 | 0.00 | 0.07 | 0.00 | 86 | 1007.5 |
| 20260509003404 | 57 | 356 | 6.0 | 12.0 | 0.00 | 0.07 | 0.00 | 87 | 1007.5 |
| 20260509002905 | 57 | 45 | 4.0 | 9.0 | 0.00 | 0.07 | 0.00 | 88 | 1007.6 |
| 20260509002405 | 57 | 353 | 4.0 | 9.0 | 0.00 | 0.07 | 0.00 | 88 | 1007.7 |
| 20260509001404 | 57 | 22 | 7.0 | 12.0 | 0.00 | 0.07 | 0.00 | 88 | 1007.6 |
| 20260509000905 | 57 | 351 | 5.0 | 13.0 | 0.00 | 0.07 | 0.00 | 88 | 1007.7 |
| 20260509000405 | 57 | 4 | 6.0 | 13.0 | 0.00 | 0.07 | 0.00 | 87 | 1007.8 |
| 20260508235404 | 57 | 11 | 6.0 | 13.0 | 0.00 | 0.07 | 0.00 | 88 | 1007.9 |
| 20260508234904 | 57 | 32 | 5.0 | 12.0 | 0.00 | 0.07 | 0.00 | 88 | 1007.8 |
| 20260508233905 | 57 | 20 | 6.0 | 12.0 | 0.00 | 0.07 | 0.00 | 87 | 1007.7 |
| 20260508233405 | 57 | 8 | 6.0 | 12.0 | 0.00 | 0.07 | 0.00 | 87 | 1007.8 |
| 20260508232904 | 57 | 30 | 6.0 | 12.0 | 0.00 | 0.07 | 0.00 | 87 | 1007.8 |
| 20260508232405 | 57 | 15 | 5.0 | 13.0 | 0.00 | 0.07 | 0.00 | 86 | 1007.7 |
| 20260508231905 | 57 | 54 | 5.0 | 12.0 | 0.00 | 0.07 | 0.00 | 86 | 1007.7 |
| 20260508230905 | 57 | 2 | 5.0 | 14.0 | 0.00 | 0.07 | 0.00 | 86 | 1007.5 |
| 20260508230405 | 57 | 16 | 6.0 | 9.0 | 0.00 | 0.07 | 0.00 | 87 | 1007.7 |
| 20260508225904 | 57 | 355 | 5.0 | 9.0 | 0.00 | 0.07 | 0.07 | 88 | 1008.0 |
| 20260508225405 | 57 | 9 | 4.0 | 10.0 | 0.01 | 0.07 | 0.07 | 88 | 1008.0 |
| 20260508224905 | 57 | 332 | 3.0 | 10.0 | 0.01 | 0.07 | 0.07 | 88 | 1007.9 |
| 20260508224405 | 57 | 50 | 3.0 | 8.0 | 0.01 | 0.07 | 0.07 | 89 | 1007.9 |
| 20260508223904 | 57 | 12 | 1.0 | 8.0 | 0.01 | 0.07 | 0.07 | 89 | 1007.6 |
| 20260508223406 | 57 | 304 | 3.0 | 9.0 | 0.01 | 0.07 | 0.07 | 89 | 1007.6 |
| 20260508222905 | 57 | 313 | 1.0 | 6.0 | 0.01 | 0.07 | 0.07 | 89 | 1007.3 |
| 20260508222405 | 57 | 333 | 2.0 | 6.0 | 0.02 | 0.07 | 0.07 | 88 | 1007.3 |
| 20260508221905 | 57 | 28 | 3.0 | 10.0 | 0.02 | 0.07 | 0.07 | 89 | 1007.9 |
| 20260508221404 | 58 | 11 | 4.0 | 8.0 | 0.02 | 0.07 | 0.07 | 89 | 1008.2 |
| 20260508220905 | 58 | 14 | 7.0 | 10.0 | 0.02 | 0.07 | 0.07 | 88 | 1008.3 |
| 20260508220405 | 58 | 20 | 6.0 | 13.0 | 0.02 | 0.07 | 0.07 | 88 | 1008.4 |
| 20260508215404 | 58 | 46 | 4.0 | 7.0 | 0.01 | 0.06 | 0.06 | 89 | 1008.5 |
| 20260508214405 | 58 | 21 | 0.0 | 3.0 | 0.01 | 0.06 | 0.06 | 89 | 1008.7 |
| 20260508213904 | 58 | 21 | 2.0 | 6.0 | 0.01 | 0.06 | 0.06 | 88 | 1008.7 |
| 20260508213404 | 58 | 21 | 4.0 | 8.0 | 0.01 | 0.06 | 0.06 | 88 | 1008.8 |
| 20260508212904 | 58 | 24 | 5.0 | 12.0 | 0.01 | 0.06 | 0.06 | 88 | 1008.7 |
| 20260508212404 | 58 | 13 | 6.0 | 10.0 | 0.00 | 0.06 | 0.06 | 89 | 1008.8 |
| 20260508210404 | 58 | 45 | 5.0 | 8.0 | 0.01 | 0.06 | 0.06 | 88 | 1008.8 |
| 20260508205905 | 58 | 84 | 0.0 | 1.0 | 0.01 | 0.06 | 0.06 | 88 | 1008.7 |
| 20260508204904 | 58 | 84 | 0.0 | 0.0 | 0.01 | 0.06 | 0.06 | 88 | 1008.5 |
| 20260508203904 | 58 | 84 | 0.0 | 0.0 | 0.06 | 0.06 | 0.06 | 87 | 1008.3 |
| 20260508202904 | 58 | 82 | 4.0 | 6.0 | 0.06 | 0.06 | 0.06 | 87 | 1008.1 |
| 20260508201904 | 58 | 39 | 2.0 | 8.0 | 0.06 | 0.06 | 0.06 | 86 | 1008.1 |
| 20260508201405 | 58 | 35 | 2.0 | 7.0 | 0.06 | 0.06 | 0.06 | 85 | 1008.0 |
| 20260508200405 | 59 | 54 | 2.0 | 6.0 | 0.05 | 0.05 | 0.05 | 85 | 1007.8 |
| 20260508195905 | 59 | 44 | 1.0 | 8.0 | 0.05 | 0.05 | 0.05 | 84 | 1007.8 |
| 20260508195405 | 59 | 65 | 2.0 | 5.0 | 0.05 | 0.05 | 0.05 | 82 | 1007.8 |
| 20260508194904 | 59 | 46 | 1.0 | 6.0 | 0.05 | 0.05 | 0.05 | 81 | 1007.8 |
| 20260508194405 | 60 | 37 | 3.0 | 9.0 | 0.04 | 0.04 | 0.04 | 78 | 1007.9 |
| 20260508193905 | 61 | 12 | 7.0 | 18.0 | 0.00 | 0.00 | 0.00 | 75 | 1008.2 |
| 20260508193404 | 63 | 34 | 13.0 | 25.0 | 0.00 | 0.00 | 0.00 | 70 | 1007.9 |
| 20260508192905 | 64 | 58 | 8.0 | 15.0 | 0.00 | 0.00 | 0.00 | 66 | 1007.8 |
| 20260508192405 | 65 | 30 | 5.0 | 6.0 | 0.00 | 0.00 | 0.00 | 62 | 1007.4 |
| 20260508191906 | 65 | 30 | 0.0 | 2.0 | 0.00 | 0.00 | 0.00 | 60 | 1007.2 |
| 20260508191406 | 65 | 30 | 0.0 | 0.0 | 0.00 | 0.00 | 0.00 | 59 | 1007.0 |
| 20260508190906 | 65 | 30 | 0.0 | 0.0 | 0.00 | 0.00 | 0.00 | 59 | 1007.0 |
| 20260508190405 | 65 | 30 | 0.0 | 0.0 | 0.00 | 0.00 | 0.00 | 59 | 1006.9 |
| 20260508185906 | 65 | 30 | 0.0 | 0.0 | 0.00 | 0.00 | 0.00 | 58 | 1006.9 |
| 20260508184406 | 65 | 30 | 0.0 | 0.0 | 0.00 | 0.00 | 0.00 | 60 | 1006.9 |
| 20260508183906 | 65 | 29 | 0.0 | 1.0 | 0.00 | 0.00 | 0.00 | 59 | 1007.1 |
| 20260508183405 | 66 | 29 | 2.0 | 6.0 | 0.00 | 0.00 | 0.00 | 58 | 1007.2 |
| 20260508182905 | 67 | 28 | 3.0 | 7.0 | 0.00 | 0.00 | 0.00 | 56 | 1007.5 |
| 20260508182405 | 67 | 42 | 2.0 | 8.0 | 0.00 | 0.00 | 0.00 | 54 | 1007.3 |
| 20260508181905 | 67 | 45 | 2.0 | 7.0 | 0.00 | 0.00 | 0.00 | 50 | 1007.3 |
| 20260508181406 | 68 | 50 | 0.0 | 3.0 | 0.00 | 0.00 | 0.00 | 49 | 1007.2 |
| 20260508180405 | 68 | 103 | 3.0 | 6.0 | 0.00 | 0.00 | 0.00 | 47 | 1007.0 |
| 20260508175905 | 68 | 27 | 1.0 | 6.0 | 0.00 | 0.00 | 0.00 | 46 | 1007.0 |
| 20260508175406 | 68 | 27 | 0.0 | 6.0 | 0.00 | 0.00 | 0.00 | 46 | 1007.0 |
| 20260508174907 | 68 | 27 | 3.0 | 6.0 | 0.00 | 0.00 | 0.00 | 46 | 1007.1 |
| 20260508172405 | 69 | 36 | 0.0 | 0.0 | 0.00 | 0.00 | 0.00 | 46 | 1007.2 |
| 20260508171906 | 69 | 61 | 0.0 | 6.0 | 0.00 | 0.00 | 0.00 | 46 | 1007.3 |
| 20260508171405 | 69 | 28 | 0.0 | 6.0 | 0.00 | 0.00 | 0.00 | 45 | 1007.2 |
| 20260508170905 | 69 | 17 | 3.0 | 10.0 | 0.00 | 0.00 | 0.00 | 44 | 1007.3 |
| 20260508170405 | 69 | 60 | 5.0 | 8.0 | 0.00 | 0.00 | 0.00 | 44 | 1007.2 |
| 20260508165926 | 69 | 40 | 1.0 | 6.0 | 0.00 | 0.00 | 0.00 | 45 | 1007.3 |
| 20260508165417 | 69 | 40 | 1.0 | 6.0 | 0.00 | 0.00 | 0.00 | 44 | 1007.3 |
| 20260508164905 | 69 | 9 | 1.0 | 5.0 | 0.00 | 0.00 | 0.00 | 44 | 1007.4 |
| 20260508164404 | 69 | 13 | 2.0 | 8.0 | 0.00 | 0.00 | 0.00 | 44 | 1007.4 |
| 20260508163905 | 69 | 36 | 4.0 | 7.0 | 0.00 | 0.00 | 0.00 | 44 | 1007.5 |
| 20260508162905 | 69 | 49 | 0.0 | 1.0 | 0.00 | 0.00 | 0.00 | 44 | 1007.6 |
| 20260508161405 | 69 | 15 | 1.0 | 7.0 | 0.00 | 0.00 | 0.00 | 44 | 1007.8 |
| 20260508160905 | 69 | 30 | 0.0 | 7.0 | 0.00 | 0.00 | 0.00 | 45 | 1007.8 |
| 20260508160405 | 69 | 30 | 3.0 | 8.0 | 0.00 | 0.00 | 0.00 | 43 | 1007.9 |
| 20260508155405 | 69 | 71 | 0.0 | 1.0 | 0.00 | 0.00 | 0.00 | 44 | 1007.9 |
| 20260508154905 | 69 | 79 | 1.0 | 5.0 | 0.00 | 0.00 | 0.00 | 44 | 1008.0 |
| 20260508153904 | 69 | 54 | 5.0 | 8.0 | 0.00 | 0.00 | 0.00 | 44 | 1008.0 |
| 20260508153405 | 69 | 46 | 1.0 | 8.0 | 0.00 | 0.00 | 0.00 | 44 | 1008.0 |
| 20260508152906 | 69 | 65 | 4.0 | 9.0 | 0.00 | 0.00 | 0.00 | 44 | 1008.0 |
| 20260508151905 | 69 | 59 | 1.0 | 6.0 | 0.00 | 0.00 | 0.00 | 44 | 1008.2 |
| 20260508151405 | 69 | 19 | 3.0 | 7.0 | 0.00 | 0.00 | 0.00 | 43 | 1008.4 |
| 20260508150905 | 69 | 5 | 0.0 | 3.0 | 0.00 | 0.00 | 0.00 | 44 | 1008.4 |
| 20260508150406 | 69 | 52 | 1.0 | 7.0 | 0.00 | 0.00 | 0.00 | 44 | 1008.6 |
| 20260508145905 | 69 | 26 | 2.0 | 6.0 | 0.00 | 0.00 | 0.00 | 44 | 1008.8 |
| 20260508144904 | 69 | 37 | 2.0 | 10.0 | 0.00 | 0.00 | 0.00 | 43 | 1008.9 |
| 20260508144405 | 69 | 22 | 6.0 | 10.0 | 0.00 | 0.00 | 0.00 | 43 | 1009.0 |
| 20260508143905 | 70 | 42 | 2.0 | 8.0 | 0.00 | 0.00 | 0.00 | 44 | 1009.0 |
| 20260508143405 | 69 | 30 | 5.0 | 8.0 | 0.00 | 0.00 | 0.00 | 45 | 1009.1 |
| 20260508142906 | 68 | 26 | 1.0 | 12.0 | 0.00 | 0.00 | 0.00 | 44 | 1009.1 |
| 20260508142404 | 69 | 12 | 6.0 | 10.0 | 0.00 | 0.00 | 0.00 | 44 | 1009.1 |
| 20260508141905 | 69 | 11 | 2.0 | 6.0 | 0.00 | 0.00 | 0.00 | 43 | 1009.2 |
| 20260508141405 | 69 | 52 | 4.0 | 10.0 | 0.00 | 0.00 | 0.00 | 45 | 1009.3 |
| 20260508140905 | 69 | 32 | 3.0 | 10.0 | 0.00 | 0.00 | 0.00 | 45 | 1009.3 |
| 20260508140405 | 68 | 31 | 4.0 | 12.0 | 0.00 | 0.00 | 0.00 | 46 | 1009.3 |
| 20260508135905 | 68 | 83 | 5.0 | 12.0 | 0.00 | 0.00 | 0.00 | 46 | 1009.2 |
| 20260508134905 | 68 | 11 | 5.0 | 8.0 | 0.00 | 0.00 | 0.00 | 45 | 1009.4 |
| 20260508134405 | 68 | 46 | 4.0 | 9.0 | 0.00 | 0.00 | 0.00 | 47 | 1009.5 |
| 20260508133905 | 68 | 35 | 4.0 | 8.0 | 0.00 | 0.00 | 0.00 | 45 | 1009.5 |
| 20260508133405 | 68 | 64 | 4.0 | 9.0 | 0.00 | 0.00 | 0.00 | 46 | 1009.7 |
| 20260508132905 | 68 | 25 | 3.0 | 12.0 | 0.00 | 0.00 | 0.00 | 47 | 1009.7 |
| 20260508132405 | 67 | 64 | 5.0 | 9.0 | 0.00 | 0.00 | 0.00 | 48 | 1009.9 |
| 20260508131904 | 67 | 60 | 7.0 | 12.0 | 0.00 | 0.00 | 0.00 | 48 | 1009.9 |
| 20260508131405 | 67 | 42 | 5.0 | 12.0 | 0.00 | 0.00 | 0.00 | 48 | 1010.0 |
| 20260508130905 | 67 | 34 | 5.0 | 9.0 | 0.00 | 0.00 | 0.00 | 48 | 1010.0 |
| 20260508130405 | 67 | 23 | 8.0 | 12.0 | 0.00 | 0.00 | 0.00 | 48 | 1010.1 |
| 20260508125905 | 67 | 29 | 3.0 | 13.0 | 0.00 | 0.00 | 0.00 | 48 | 1010.1 |
| 20260508125405 | 67 | 29 | 3.0 | 8.0 | 0.00 | 0.00 | 0.00 | 48 | 1010.0 |
| 20260508124905 | 67 | 351 | 2.0 | 10.0 | 0.00 | 0.00 | 0.00 | 48 | 1010.1 |
| 20260508124406 | 66 | 55 | 1.0 | 10.0 | 0.00 | 0.00 | 0.00 | 47 | 1010.1 |
| 20260508123905 | 67 | 39 | 6.0 | 12.0 | 0.00 | 0.00 | 0.00 | 47 | 1010.2 |
| 20260508123405 | 67 | 52 | 5.0 | 14.0 | 0.00 | 0.00 | 0.00 | 47 | 1010.3 |
| 20260508122905 | 67 | 34 | 5.0 | 13.0 | 0.00 | 0.00 | 0.00 | 47 | 1010.3 |
| 20260508122405 | 67 | 88 | 3.0 | 13.0 | 0.00 | 0.00 | 0.00 | 47 | 1010.4 |
| 20260508121905 | 66 | 18 | 3.0 | 13.0 | 0.00 | 0.00 | 0.00 | 48 | 1010.5 |
| 20260508121405 | 66 | 65 | 4.0 | 12.0 | 0.00 | 0.00 | 0.00 | 48 | 1010.6 |